GW2283 Weather Reports


time (UTC)temp
C
wind
direction
speed
KPH
gust
KPH
rain 1hr
cm
rain 24hr
cm
rain mn
cm
humidity
%
barometer
mb
20260504220603 28 115 14.5 14.5 0.00 0.00 0.00 52 1015.2
20260504215101 28 114 8.0 12.9 0.00 0.00 0.00 49 1015.2
20260504213602 29 124 4.8 16.1 0.00 0.00 0.00 48 1015.2
20260504212103 29 83 11.3 14.5 0.00 0.00 0.00 46 1015.2
20260504210601 28 122 6.4 12.9 0.00 0.00 0.00 47 1015.2
20260504203601 28 134 11.3 20.9 0.00 0.00 0.00 48 1015.6
20260504200602 30 169 8.0 17.7 0.00 0.00 0.00 45 1015.9
20260504195102 29 78 14.5 19.3 0.00 0.00 0.00 45 1015.9
20260504193602 30 150 8.0 17.7 0.00 0.00 0.00 44 1016.3
20260504192102 29 72 11.3 16.1 0.00 0.00 0.00 46 1016.3
20260504190602 29 121 8.0 11.3 0.00 0.00 0.00 46 1016.6
20260504185101 28 338 9.7 12.9 0.00 0.00 0.00 47 1016.6
20260504182102 28 81 6.4 17.7 0.00 0.00 0.00 46 1017.6
20260504180602 30 302 8.0 12.9 0.00 0.00 0.00 43 1017.6
20260504175102 29 115 8.0 14.5 0.00 0.00 0.00 46 1017.6
20260504173605 29 118 9.7 14.5 0.00 0.00 0.00 43 1017.9
20260504172102 28 126 6.4 16.1 0.00 0.00 0.00 43 1017.9
20260504170601 29 147 11.3 20.9 0.00 0.00 0.00 42 1017.9
20260504151102 26 81 12.9 17.7 0.00 0.00 0.00 54 1019.0
20260504081601 19 103 3.2 6.4 0.00 0.00 0.00 82 1017.3
20260504044601 20 101 6.4 11.3 0.00 0.00 0.00 83 1018.6
20260504043101 20 69 6.4 8.0 0.00 0.00 0.00 82 1018.6
20260504041602 20 109 6.4 6.4 0.00 0.00 0.00 82 1019.0
20260504035103 21 96 6.4 9.7 0.00 0.00 0.25 80 1016.9
20260504033602 21 172 3.2 9.7 0.00 0.00 0.25 79 1016.9
20260504032102 21 175 6.4 11.3 0.00 0.00 0.25 78 1016.9
20260504025101 21 160 8.0 12.9 0.00 0.00 0.25 76 1016.9
20260504023602 21 138 12.9 14.5 0.00 0.00 0.25 76 1016.9
20260504022102 22 93 11.3 12.9 0.00 0.00 0.25 76 1016.9
20260504020601 22 87 8.0 14.5 0.00 0.00 0.25 76 1016.9
20260504015102 22 143 8.0 12.9 0.00 0.00 0.25 75 1016.9
20260504012102 22 38 6.4 12.9 0.00 0.00 0.25 75 1016.9
20260504010601 22 346 4.8 12.9 0.00 0.00 0.25 73 1016.9
20260504005101 23 105 3.2 11.3 0.00 0.00 0.25 72 1016.9
20260504003601 23 25 6.4 11.3 0.00 0.00 0.25 71 1016.9
20260504002101 23 78 9.7 11.3 0.00 0.00 0.25 69 1016.9
20260504000602 23 346 4.8 11.3 0.00 0.00 0.25 68 1016.9
20260503230601 25 122 9.7 11.3 0.00 0.00 0.25 64 1016.9
20260503225102 25 104 6.4 9.7 0.00 0.00 0.25 64 1016.9
20260503223602 25 79 8.0 11.3 0.00 0.00 0.25 64 1016.9
20260503222102 25 110 4.8 16.1 0.00 0.00 0.25 63 1016.9